Flag for Greece Weather past 2 weeks in Kallithea, Greece

Now
59 °F

Partly sunny.


Feels Like: 58 °F
Forecast: 53 / 62 °F
Wind: 7 mph from East

Location: Elefsis Airport

Current Time: Oct 24, 2014 at 10:14:39 AM

Latest Report: Oct 24, 2014 at 9:20 AM


Visibility: N/A

Pressure: 29.77 "Hg

Humidity: 82%

Dew point: 54 °F

Location of KallitheaLocation

Historic Weather in Kallithea — Graph

°F

Kallithea temperature yesterday

Maximum temperature yesterday: 73 °F (at 6:20 AM)
Minimum temperature yesterday: 54 °F (at 11:50 PM)
Average temperature yesterday: 67 °F

Past Weeks' High & Low Weather Summary

 TemperatureHumidityPressure
High88 °F (Oct 16, 3:50 PM)100% (Oct 22, 10:20 AM)30.30 "Hg (Oct 22, 10:20 AM)
Low36 °F (Oct 22, 10:20 AM)22% (Oct 16, 3:50 PM)29.47 "Hg (Oct 23, 8:20 AM)
Average69 °F56%29.99 "Hg
* Reported Oct 9 8:20 AM — Oct 24 8:50 AM, Kallithea, Weather by CustomWeather, © 2014

Note: Actual official high and low records may vary slightly from our data, if they occured in-between our weather recording intervals... More about our weather records

Advertising

Kallithea weather history for previous 24 hours

 ConditionsComfort  
Time TempWeatherWind HumidityBarometerVisibility
8:50 AM
Oct 24
57 °FPartly sunny.6 mph82%29.77 "HgN/A
8:20 AM55 °FLight rain. Passing clouds.6 mph82%29.77 "Hg5 mi
7:50 AM59 °FRain. Partly cloudy.No wind55%29.77 "Hg5 mi
7:20 AM59 °FPassing clouds.No wind55%29.77 "HgN/A
6:50 AM55 °FPassing clouds.6 mph59%29.74 "HgN/A
5:50 AM54 °FPassing clouds.6 mph63%29.77 "HgN/A
5:20 AM54 °FPassing clouds.6 mph63%29.77 "HgN/A
4:50 AM54 °FPassing clouds.6 mph63%29.77 "HgN/A
3:50 AM52 °FPassing clouds.6 mph67%29.80 "HgN/A
3:20 AM52 °FPassing clouds.No wind67%29.80 "HgN/A
2:50 AM52 °FPassing clouds.6 mph67%29.80 "HgN/A
2:20 AM54 °FPassing clouds.7 mph63%29.83 "HgN/A
1:20 AM54 °FPassing clouds.6 mph67%29.80 "HgN/A
12:50 AM54 °FPassing clouds.6 mph67%29.80 "HgN/A
12:20 AM54 °FPassing clouds.6 mph63%29.80 "HgN/A
11:50 PM
Oct 23
54 °FPassing clouds.6 mph63%29.80 "HgN/A
11:20 PM57 °FPassing clouds.7 mph59%29.80 "HgN/A
10:50 PM57 °FPassing clouds.7 mph59%29.80 "HgN/A
10:20 PM59 °FPassing clouds.7 mph51%29.77 "HgN/A
9:50 PM59 °FPassing clouds.7 mph51%29.77 "HgN/A
9:20 PM61 °FPassing clouds.8 mph48%29.74 "HgN/A
8:50 PM61 °FPassing clouds.6 mph48%29.74 "HgN/A
8:20 PM59 °FPassing clouds.8 mph51%29.71 "HgN/A
7:50 PM61 °FPassing clouds.6 mph45%29.71 "HgN/A
7:20 PM63 °FPassing clouds.15 mph42%29.71 "HgN/A
6:50 PM63 °FPassing clouds.15 mph42%29.71 "HgN/A
6:20 PM64 °FPassing clouds.16 mph40%29.68 "HgN/A
5:50 PM64 °FPassing clouds.16 mph43%29.68 "HgN/A
5:20 PM66 °FPassing clouds.17 mph40%29.65 "HgN/A
4:50 PM70 °FPassing clouds.17 mph43%29.62 "HgN/A
4:20 PM70 °FPassing clouds.16 mph46%29.59 "HgN/A
3:50 PM72 °FScattered clouds.13 mph38%29.59 "HgN/A
3:20 PM72 °FScattered clouds.9 mph41%29.56 "HgN/A
2:50 PM70 °FBroken clouds.10 mph43%29.56 "HgN/A
2:20 PM72 °FScattered clouds.13 mph38%29.56 "HgN/A
1:50 PM72 °FScattered clouds.12 mph38%29.56 "HgN/A
1:20 PM68 °FBroken clouds.12 mph53%29.56 "HgN/A
12:50 PM66 °FBroken clouds.8 mph64%29.56 "HgN/A
12:20 PM64 °FPartly sunny.8 mph73%29.53 "HgN/A
11:50 AM64 °FLight rain. Partly sunny.No wind68%29.53 "Hg4 mi
11:20 AM66 °FBroken clouds.16 mph60%29.53 "HgN/A
10:50 AM68 °FBroken clouds.13 mph64%29.53 "HgN/A
10:20 AM72 °FBroken clouds.9 mph57%29.50 "Hg6 mi
Weather by CustomWeather, © 2014

See weather overviewHow to use our weather pages